Regional Weather Roundup
Issued by NWS

Home | Current Version | Previous Version | Text Only | Print | Product List | Glossary Off
Versions: 1 2 3 4 5 6 7 8 9 10 11 12 13 14 15 16 17 18 19 20 21 22 23 24 25 26 27 28 29 30 31 32 33 34 35 36 37 38 39 40 41 42 43 44 45 46 47 48 49 50

000
ASUS43 KMKX 171220
RWRWI

WISCONSIN REGIONAL WEATHER ROUNDUP
NATIONAL WEATHER SERVICE MILWAUKEE/SULLIVAN WI
600 AM CST WED JAN 17 2018

NOTE: "FAIR" INDICATES FEW OR NO CLOUDS BELOW 12,000 FEET WITH NO
SIGNIFICANT WEATHER AND/OR OBSTRUCTIONS TO VISIBILITY.

WIZ001-002-006>008-014>016-023>028-171300-
NORTHWEST WISCONSIN

CITY           SKY/WX    TMP DP  RH WIND       PRES   REMARKS
SUPERIOR ARPT  FAIR       6  -3  67 SW13      30.24F WCI -10
6HR MIN TEMP:   4; 6HR MAX TEMP:   6;

ASHLAND        FAIR       5  -3  69 SW13      30.23F WCI -12
6HR MIN TEMP:   5; 6HR MAX TEMP:   8;

HAYWARD        FAIR       3  -5  69 SW7       30.26F WCI  -9
6HR MIN TEMP:  -1; 6HR MAX TEMP:   3;

SIREN          FAIR       5  -3  69 SW9       30.30F WCI -10
6HR MIN TEMP:   0; 6HR MAX TEMP:   5;

CUMBERLAND     FAIR       0  -6  78 S7        30.30F WCI -13
RICE LAKE      FAIR      -2  -6  82 CALM      30.35F
6HR MIN TEMP:  -4; 6HR MAX TEMP:   0;

CHETEK         FAIR      -3  -6  85 MISG      30.35F
6HR MIN TEMP:  -5; 6HR MAX TEMP:  -1;

LADYSMITH      FAIR      -4  -8  84 S5        30.32F WCI -15
6HR MIN TEMP:  -3; 6HR MAX TEMP:   1;

EAU CLAIRE     FAIR      -3  -7  82 SW8       30.39F WCI -18
6HR MIN TEMP:  -6; 6HR MAX TEMP:  -2;

MENOMONIE      FAIR      -3  -8  81 S5        30.40F WCI -14
6HR MIN TEMP:  -7; 6HR MAX TEMP:  -3;

NEW RICHMOND   FAIR      -1  -6  80 S7        30.36F WCI -14
6HR MIN TEMP:  -5; 6HR MAX TEMP:  -1;

OSCEOLA        FAIR      -1  -6  80 S7        30.39F WCI -15
6HR MIN TEMP:  -6; 6HR MAX TEMP:  -1;

$$

WIZ003>005-009-010-017-018-171300-
NORTH CENTRAL WISCONSIN

CITY           SKY/WX    TMP DP  RH WIND       PRES   REMARKS
MANITOWISH WTR FAIR       4  -3  70 SW9       30.20S WCI -10
6HR MIN TEMP:   1; 6HR MAX TEMP:   5;

ARBOR VITAE    FAIR       8   2  78 SW8       30.22S WCI  -5
6HR MIN TEMP:   3; 6HR MAX TEMP:   8;

WOODRUFF       FAIR       8   2  78 SW8       30.22S WCI  -5
6HR MIN TEMP:   3; 6HR MAX TEMP:   8;

RHINELANDER    FAIR       4  -1  80 W9        30.24F WCI -10
6HR MIN TEMP:   1; 6HR MAX TEMP:   4;

EAGLE RIVER    FAIR       5  -2  71 W13       30.20F WCI -11
6HR MIN TEMP:   2; 6HR MAX TEMP:   5;

LAND O LAKES   FAIR       7   0  72 SW9G16    30.20S WCI  -6
6HR MIN TEMP:   5; 6HR MAX TEMP:   8;

PHILLIPS       FAIR       1  -4  78 SW9       30.26F WCI -14
6HR MIN TEMP:  -2; 6HR MAX TEMP:   2;

TOMAHAWK       FAIR       3  -2  79 SW5       30.27F WCI  -6
6HR MIN TEMP:  -1; 6HR MAX TEMP:   3;

MEDFORD        FAIR      -2  -5  85 SW7       30.30F WCI -15
6HR MIN TEMP:  -5; 6HR MAX TEMP:  -1;

MERRILL        FAIR       1  -4  81 SW3       30.32F
6HR MIN TEMP:  -2; 6HR MAX TEMP:   2;

$$

WIZ029-030-035-036-043>047-171300-
CENTRAL WISCONSIN

CITY           SKY/WX    TMP DP  RH WIND       PRES   REMARKS
WAUSAU         MOCLDY     1  -3  83 W5        30.33F WCI  -9
6HR MIN TEMP:  -3; 6HR MAX TEMP:   1;

MOSINEE        CLEAR      0  -2  92 SW9       30.35F WCI -16
MARSHFIELD     FAIR      -1  -5  82 W7        30.34F WCI -14
6HR MIN TEMP:  -4; 6HR MAX TEMP:  -1;

STEVENS POINT  FAIR      -1  -4  87 SW8       30.38F WCI -16
6HR MIN TEMP:  -3; 6HR MAX TEMP:   1;

WAUPACA        CLOUDY     3  -2  77 SW7       30.41F WCI  -9
6HR MIN TEMP:   2; 6HR MAX TEMP:   9;

WAUTOMA        MOCLDY    -1  -5  82 SW7       30.43F WCI -14
6HR MIN TEMP:  -2; 6HR MAX TEMP:   3;

WISC RAPIDS    CLOUDY     0  -6  76 W8        30.41F WCI -14
6HR MIN TEMP:  -2; 6HR MAX TEMP:   3;

CAMP DOUGLAS   MOCLDY    -6  -9  84 CALM      30.43F
$$

WIZ011>013-019>022-031-037>040-048>050-171300-
NORTHEAST WISCONSIN

CITY           SKY/WX    TMP DP  RH WIND       PRES   REMARKS
ANTIGO         MOCLDY     1  -3  85 W8        30.28F WCI -13
6HR MIN TEMP:  -1; 6HR MAX TEMP:   3;

SHAWANO        MOCLDY     7   0  75 W8        30.37S WCI  -6
6HR MIN TEMP:   5; 6HR MAX TEMP:  11;

OCONTO         FAIR       5   0  79 SW8       30.36F WCI  -8
STURGEON BAY   CLOUDY     5   1  83 SW18      30.34F WCI -15
6HR MIN TEMP:   5; 6HR MAX TEMP:  10;

GREEN BAY      CLOUDY     5  -1  76 SW10      30.40F WCI -10
6HR MIN TEMP:   4; 6HR MAX TEMP:  11;

MANITOWOC      FAIR       5   0  79 W12       30.41F WCI -11
6HR MIN TEMP:   4; 6HR MAX TEMP:  12;

APPLETON       MOCLDY     1  -4  78 W14       30.38F WCI -17
CLINTONVILLE   CLOUDY     5   0  78 W7        30.38F WCI  -7
OSHKOSH        FAIR       3  -1  83 W8        30.41F WCI -10
6HR MIN TEMP:   3; 6HR MAX TEMP:   8;

$$

WIZ032>034-041-042-053>061-171300-
SOUTHWEST WISCONSIN

CITY           SKY/WX    TMP DP  RH WIND       PRES   REMARKS
LA CROSSE      FAIR      -1  -6  79 S10       30.49F WCI -17
6HR MIN TEMP:  -6; 6HR MAX TEMP:   1;

SPARTA         FAIR      -5  -8  87 CALM      30.47S
6HR MIN TEMP:  -7; 6HR MAX TEMP:   1;

VIROQUA        FAIR      -3  -5  90 SW7       30.42F WCI -16
6HR MIN TEMP:  -6; 6HR MAX TEMP:  -3;

BOSCOBEL       FAIR      -4  -9  79 SW6       30.53F WCI -16
6HR MIN TEMP:  -5; 6HR MAX TEMP:   1;

PRAIRIE DU CHI FAIR      -4  -9  79 CALM      30.54S
6HR MIN TEMP:  -6; 6HR MAX TEMP:  -1;

PLATTEVILLE    FAIR      -4  -6  89 SW5       30.50F WCI -15
6HR MIN TEMP:  -4; 6HR MAX TEMP:   0;

$$

WIZ056-057-062-063-064-067-068-171300-
SOUTH CENTRAL WISCONSIN

CITY           SKY/WX    TMP DP  RH WIND       PRES   REMARKS
REEDSBURG      FAIR       0  -4  85 SW6       30.46F WCI -12
6HR MIN TEMP:  -1; 6HR MAX TEMP:   3;

BARABOO/DELLS  FAIR       0  -4  84 W3        30.44F
6HR MIN TEMP:  -2; 6HR MAX TEMP:   3;

LONE ROCK      FAIR      -4  -7  87 W3        30.51F
6HR MIN TEMP:  -4; 6HR MAX TEMP:   4;

MINERAL POINT  FAIR       0  -4  85 W6        30.46F WCI -12
MADISON        FAIR       1  -3  83 CALM      30.47F
6HR MIN TEMP:   1; 6HR MAX TEMP:   6;

MIDDLETON      FAIR       2  -2  83 W7        30.47F WCI -11
6HR MIN TEMP:   1; 6HR MAX TEMP:   8;

WATERTOWN      FAIR       0  -2  92 CALM      30.46F
6HR MIN TEMP:  -4; 6HR MAX TEMP:   3;

MONROE         FAIR       0  -4  85 W15       30.47R WCI -20
JANESVILLE     FAIR       0  -6  78 SW3       30.51R
$$

WIZ051-052-058>065-066-070>072-171300-
SOUTHEAST WISCONSIN

CITY           SKY/WX    TMP DP  RH WIND       PRES   REMARKS
MILWAUKEE      FAIR       7   3  84 W7        30.47S WCI  -5
6HR MIN TEMP:   7; 6HR MAX TEMP:  14;

WAUKESHA       CLEAR      3   0  85 SW7       30.47S WCI  -9
MILWAUKEE/TIMM FAIR       5   1  85 W9        30.47S WCI  -9
RACINE         FAIR       5   1  83 W8        30.50R WCI  -8
6HR MIN TEMP:   4; 6HR MAX TEMP:  10;

BURLINGTON     FAIR       1  -4  81 SW5       30.49S WCI  -9
6HR MIN TEMP:  -2; 6HR MAX TEMP:   6;

KENOSHA        FAIR       1  -3  83 W7        30.49R WCI -12
6HR MIN TEMP:   1; 6HR MAX TEMP:   8;

FOND DU LAC    FAIR       3  -3  76 SW7       30.44F WCI  -9
6HR MIN TEMP:   1; 6HR MAX TEMP:   8;

SHEBOYGAN      FAIR       4   0  83 W10       30.41F WCI -11
6HR MIN TEMP:   3; 6HR MAX TEMP:  11;

WEST BEND      FAIR       5   1  85 W8        30.43S WCI  -8
JUNEAU         FAIR      -3  -6  86 SW3       30.45F
6HR MIN TEMP:  -4; 6HR MAX TEMP:   5;

$$

LSZ147-162-171300-
LAKE SUPERIOR

STATION/POSITION TIME  TEMP    WIND        PRES    WAVE
                       AIR SEA DIR/SP/G            HT/PER
                 (UTC) (F)     (DEG/KT/KT) (MB)    (FT/S)
DEVILS ISLAND    1200   11     230/ 27/ 32 1022.8F
SAXON HARBOR     1200   10     200/ 12/ 21 1022.7F
$$

LMZ867-665-643>646-171300-
LAKE MICHIGAN

STATION/POSITION TIME  TEMP    WIND        PRES    WAVE
                       AIR SEA DIR/SP/G            HT/PER
                 (UTC) (F)     (DEG/KT/KT) (MB)    (FT/S)
NORTHPORT PIER   1137    8     230/ 13     1026.1F
KEWAUNEE LAKESHO 1154    6     270/ 10/ 15



USA.gov is the U.S. government's official web portal to all federal, state and local government web resources and services.